Weather History for Worcester, MA

Change the Weather History Date:

Saturday, October 15, 2011

  Actual Average Record
Temperature  
Mean Temperature 55 °F 50 °F  
Max Temperature 60 °F 59 °F 85 °F (1956)
Min Temperature 49 °F 42 °F 28 °F (1928)
Degree Days  
Heating Degree Days 10 15  
Month to date heating degree days 122 188  
Since 1 July heating degree days 208 381  
Cooling Degree Days 0 0  
Month to date cooling degree days 11 0  
Year to date cooling degree days 638 468  
Growing Degree Days 4 (Base 50)    
Moisture  
Dew Point 44 °F    
Average Humidity 66    
Maximum Humidity 86    
Minimum Humidity 46    
Precipitation  
Precipitation 0.07 in 0.16 in 3.49 in (1955)
Month to date precipitation 2.56 2.36  
Year to date precipitation 53.92 37.65  
Sea Level Pressure  
Sea Level Pressure 29.53 in    
Wind  
Wind Speed 18 mph (WSW)    
Max Wind Speed 29 mph    
Max Gust Speed 41 mph    
Visibility 9 miles    
Events Rain    
T = Trace of Precipitation, MM = Missing Value Source: NWS Daily Summary

Daily Weather History Graph

Daily Weather History Graph

Search for Another Location

Airport:

Trip Planner

Search our weather history database for the weather conditions in past years. The results will help you decide how hot, cold, wet, or windy it might be!

Date:

Astronomy

Oct. 15, 2011 Rise Set
Actual Time 6:59 AM EDT 6:06 PM EDT
Civil Twilight 6:31 AM EDT 6:34 PM EDT
Nautical Twilight 5:59 AM EDT 7:06 PM EDT
Astronomical Twilight 5:26 AM EDT 7:39 PM EDT
Moon 7:55 PM EDT (10/15) 10:25 AM EDT (10/15)
Length of Visible Light 12h 02m
Length of Day
11h 06m
Waning Gibbous, 89% of the Moon is Illuminated
Oct 15
Waning Gibbous
Oct 19
Last Quarter
Oct 26
New
Nov 2
First Quarter
Nov 10
Full

Hourly Weather History & Observations

Time (EDT) Temp. Dew Point Humidity Pressure Visibility Wind Dir Wind Speed Gust Speed Precip Events Conditions
12:05 AM 57.2 °F 53.6 °F 88% 29.37 in 10.0 mi West 17.3 mph 33.4 mph 0.00 in Rain Light Rain
12:21 AM 55.4 °F 51.8 °F 88% 29.37 in 10.0 mi West 17.3 mph 27.6 mph 0.00 in   Mostly Cloudy
12:29 AM 55.4 °F 51.8 °F 88% 29.37 in 10.0 mi WSW 23.0 mph 32.2 mph 0.00 in   Mostly Cloudy
12:54 AM 55.0 °F 48.9 °F 80% 29.39 in 10.0 mi West 17.3 mph 32.2 mph 0.00 in   Mostly Cloudy
1:44 AM 55.4 °F 50.0 °F 82% 29.42 in 10.0 mi WSW 13.8 mph 23.0 mph N/A   Overcast
1:54 AM 55.4 °F 51.8 °F 88% 29.42 in 10.0 mi SW 12.7 mph - N/A   Overcast
2:54 AM 53.1 °F 48.0 °F 83% 29.45 in 10.0 mi SW 21.9 mph 31.1 mph N/A   Overcast
3:26 AM 51.8 °F 46.4 °F 82% 29.45 in 10.0 mi SW 18.4 mph 28.8 mph N/A   Scattered Clouds
3:54 AM 52.0 °F 45.0 °F 77% 29.46 in 10.0 mi WSW 19.6 mph 27.6 mph N/A   Partly Cloudy
4:54 AM 51.1 °F 45.0 °F 80% 29.49 in 10.0 mi WSW 17.3 mph 25.3 mph N/A   Clear
5:54 AM 50.0 °F 44.1 °F 80% 29.51 in 10.0 mi SW 13.8 mph 24.2 mph N/A   Clear
6:54 AM 48.9 °F 43.0 °F 80% 29.53 in 10.0 mi SW 15.0 mph 20.7 mph N/A   Clear
7:54 AM 50.0 °F 44.1 °F 80% 29.55 in 10.0 mi WSW 16.1 mph 25.3 mph N/A   Clear
8:54 AM 53.6 °F 42.8 °F 67% 29.57 in 10.0 mi SW 20.7 mph 28.8 mph N/A   Clear
9:54 AM 55.0 °F 43.0 °F 64% 29.58 in 10.0 mi SW 24.2 mph 32.2 mph N/A   Clear
10:54 AM 57.0 °F 43.0 °F 59% 29.58 in 10.0 mi SW 17.3 mph 29.9 mph N/A   Partly Cloudy
11:54 AM 59.0 °F 42.1 °F 53% 29.57 in 10.0 mi SSW 19.6 mph 32.2 mph N/A   Scattered Clouds
12:54 PM 57.9 °F 41.0 °F 53% 29.56 in 10.0 mi SW 20.7 mph 27.6 mph N/A   Mostly Cloudy
1:54 PM 57.9 °F 41.0 °F 53% 29.55 in 10.0 mi WSW 16.1 mph 28.8 mph N/A   Mostly Cloudy
2:04 PM 51.8 °F 42.8 °F 71% 29.58 in 1.8 mi WSW 24.2 mph 41.4 mph N/A Rain Rain
2:15 PM 48.2 °F 44.6 °F 87% 29.57 in 4.0 mi West 13.8 mph 29.9 mph 0.06 in Rain Rain
2:54 PM 52.0 °F 45.0 °F 77% 29.57 in 10.0 mi WSW 15.0 mph 24.2 mph 0.07 in Rain Light Rain
3:54 PM 53.1 °F 44.1 °F 71% 29.57 in 7.0 mi SW 19.6 mph 29.9 mph 0.00 in   Overcast
4:54 PM 54.0 °F 43.0 °F 66% 29.58 in 10.0 mi SW 12.7 mph 21.9 mph N/A   Overcast
5:54 PM 53.6 °F 41.0 °F 62% 29.59 in 10.0 mi WSW 18.4 mph 27.6 mph N/A   Overcast
6:54 PM 53.1 °F 39.0 °F 59% 29.62 in 10.0 mi SW 16.1 mph - N/A   Clear
7:54 PM 52.0 °F 39.0 °F 61% 29.65 in 10.0 mi SW 13.8 mph - N/A   Partly Cloudy
8:54 PM 54.0 °F 37.9 °F 55% 29.64 in 10.0 mi SW 20.7 mph 27.6 mph N/A   Overcast
9:54 PM 53.1 °F 37.0 °F 55% 29.65 in 10.0 mi SW 18.4 mph 26.5 mph N/A   Clear
10:54 PM 53.1 °F 35.1 °F 50% 29.67 in 10.0 mi SW 18.4 mph 26.5 mph N/A   Clear
11:54 PM 53.1 °F 34.0 °F 48% 29.67 in 10.0 mi SW 18.4 mph 29.9 mph N/A   Clear